IU7TPK-1 Weather Reports


Display with metric or nautical units.
time (UTC)temp
F
wind
direction
speed
MPH
gust
MPH
rain 1hr
in
rain 24hr
in
rain mn
in
humidity
%
barometer
mb
20260906044512 77 90 0.0 2.0 0.00 0.00 0.00 45 1013.0
20260906044009 77 90 0.0 2.0 0.00 0.00 0.00 45 1012.0
20260906043509 77 0 0.0 0.0 0.00 0.00 0.00 46 1012.0
20260906043011 77 0 0.0 0.0 0.00 0.00 0.00 46 1012.0
20260906042509 77 0 0.0 0.0 0.00 0.00 0.00 46 1013.0
20260906042009 77 0 0.0 0.0 0.00 0.00 0.00 47 1013.0
20260906041511 77 154 0.0 2.0 0.00 0.00 0.00 46 1013.0
20260906041009 77 154 0.0 2.0 0.00 0.00 0.00 47 1012.0
20260906040509 76 0 0.0 0.0 0.00 0.00 0.00 47 1012.0
20260906040011 76 0 0.0 0.0 0.00 0.00 0.00 48 1012.0
20260906035009 76 0 0.0 0.0 0.00 0.00 0.00 48 1012.0
20260906034511 76 75 0.0 2.0 0.00 0.00 0.00 48 1012.0
20260906034008 76 75 0.0 2.0 0.00 0.00 0.00 48 1012.0
20260906033011 76 75 0.0 2.0 0.00 0.00 0.00 48 1012.0
20260906032508 76 104 0.0 2.0 0.00 0.00 0.00 48 1012.0
20260906032009 76 140 0.0 2.0 0.00 0.00 0.00 48 1012.0
20260906031511 76 302 0.0 2.0 0.00 0.00 0.00 48 1012.0
20260906031008 76 10 0.0 3.0 0.00 0.00 0.00 48 1012.0
20260906030508 76 45 0.0 3.0 0.00 0.00 0.00 49 1012.0
20260906030011 76 46 2.0 3.0 0.00 0.00 0.00 49 1012.0
20260906025509 76 0 0.0 0.0 0.00 0.00 0.00 50 1012.0
20260906024511 76 0 0.0 0.0 0.00 0.00 0.00 50 1012.0
20260906024009 76 0 0.0 0.0 0.00 0.00 0.00 50 1012.0
20260906022509 76 45 0.0 2.0 0.00 0.00 0.00 50 1012.0
20260906022009 76 0 0.0 0.0 0.00 0.00 0.00 51 1012.0
20260906021009 76 0 0.0 0.0 0.00 0.00 0.00 52 1012.0
20260906020508 76 0 0.0 0.0 0.00 0.00 0.00 51 1012.0
20260906020011 76 0 0.0 0.0 0.00 0.00 0.00 51 1012.0
20260906015509 76 45 0.0 2.0 0.00 0.00 0.00 51 1013.0
20260906015008 76 45 0.0 2.0 0.00 0.00 0.00 51 1013.0
20260906014511 76 0 0.0 0.0 0.00 0.00 0.00 51 1013.0
20260906014009 76 0 0.0 0.0 0.00 0.00 0.00 50 1012.0
20260906013509 76 0 0.0 0.0 0.00 0.00 0.00 50 1012.0
20260906013011 76 0 0.0 0.0 0.00 0.00 0.00 49 1012.0
20260906012009 76 45 0.0 2.0 0.00 0.00 0.00 49 1012.0
20260906011511 76 45 0.0 2.0 0.00 0.00 0.00 48 1012.0
20260906011009 75 45 0.0 2.0 0.00 0.00 0.00 48 1013.0
20260906010509 76 45 0.0 2.0 0.00 0.00 0.00 48 1013.0
20260906010010 76 44 0.0 2.0 0.00 0.00 0.00 46 1013.0
20260906005509 75 45 0.0 3.0 0.00 0.00 0.00 45 1013.0
20260906004511 76 44 0.0 3.0 0.00 0.00 0.00 44 1013.0
20260906004009 76 45 2.0 3.0 0.00 0.00 0.00 44 1013.0
20260906003509 76 45 0.0 3.0 0.00 0.00 0.00 44 1013.0
20260906003011 76 45 0.0 3.0 0.00 0.00 0.00 44 1013.0
20260906002509 76 45 0.0 2.0 0.00 0.00 0.00 44 1013.0
20260906002009 76 45 0.0 2.0 0.00 0.00 0.00 44 1013.0
20260906001511 76 45 0.0 3.0 0.00 0.00 0.00 44 1013.0
20260906001008 76 45 0.0 3.0 0.00 0.00 0.00 44 1013.0
20260906000509 76 45 0.0 3.0 0.00 0.00 0.00 44 1013.0
20260906000011 76 47 2.0 3.0 0.00 0.00 0.00 44 1013.0
20260905235009 76 50 2.0 3.0 0.00 0.00 0.00 44 1013.0
20260905234009 76 49 0.0 2.0 0.00 0.00 0.00 44 1013.0
20260905233509 76 49 0.0 2.0 0.00 0.00 0.00 44 1013.0
20260905233011 76 49 0.0 3.0 0.00 0.00 0.00 44 1013.0
20260905232508 76 50 0.0 3.0 0.00 0.00 0.00 44 1013.0
20260905232009 76 50 0.0 3.0 0.00 0.00 0.00 44 1013.0
20260905230011 77 50 0.0 3.0 0.00 0.00 0.00 44 1013.0
20260905225508 77 50 0.0 3.0 0.00 0.00 0.00 44 1013.0
20260905224511 77 50 0.0 2.0 0.00 0.00 0.00 44 1013.0
20260905224008 77 50 0.0 2.0 0.00 0.00 0.00 44 1013.0
20260905223508 77 50 0.0 2.0 0.00 0.00 0.00 43 1013.0
20260905223011 77 50 0.0 2.0 0.00 0.00 0.00 43 1013.0
20260905221009 78 50 0.0 2.0 0.00 0.00 0.00 44 1013.0
20260905220509 78 50 0.0 2.0 0.00 0.00 0.00 44 1013.0
20260905215009 78 50 0.0 2.0 0.00 0.00 0.00 44 1013.0
20260905214008 78 50 0.0 3.0 0.00 0.00 0.00 44 1013.0
20260905213508 78 50 0.0 3.0 0.00 0.00 0.00 44 1013.0
20260905213011 78 50 0.0 3.0 0.00 0.00 0.00 44 1013.0
20260905212509 78 50 0.0 3.0 0.00 0.00 0.00 44 1013.0
20260905212009 78 50 0.0 2.0 0.00 0.00 0.00 44 1013.0
20260905211511 78 51 0.0 2.0 0.00 0.00 0.00 44 1013.0
20260905211008 79 51 0.0 2.0 0.00 0.00 0.00 43 1013.0
20260905210508 79 50 0.0 2.0 0.00 0.00 0.00 43 1013.0
20260905205009 79 51 0.0 2.0 0.00 0.00 0.00 43 1013.0
20260905204511 80 51 0.0 2.0 0.00 0.00 0.00 43 1013.0
20260905204009 79 51 0.0 2.0 0.00 0.00 0.00 43 1013.0
20260905203509 80 50 0.0 2.0 0.00 0.00 0.00 43 1013.0
20260905203011 80 50 0.0 2.0 0.00 0.00 0.00 43 1013.0
20260905202509 80 50 0.0 2.0 0.00 0.00 0.00 43 1013.0
20260905202009 80 51 0.0 2.0 0.00 0.00 0.00 42 1013.0
20260905201008 81 51 0.0 2.0 0.00 0.00 0.00 42 1013.0
20260905200508 81 51 0.0 2.0 0.00 0.00 0.00 42 1013.0
20260905200011 81 51 0.0 2.0 0.00 0.00 0.00 42 1013.0
20260905195509 81 0 0.0 0.0 0.00 0.00 0.00 42 1013.0
20260905195009 81 20 0.0 2.0 0.00 0.00 0.00 42 1013.0
20260905193508 82 0 0.0 0.0 0.00 0.00 0.00 42 1013.0
20260905193011 83 0 0.0 0.0 0.00 0.00 0.00 42 1013.0
20260905192509 83 0 0.0 0.0 0.00 0.00 0.00 42 1013.0
20260905192009 83 0 0.0 0.0 0.00 0.00 0.00 42 1013.0
20260905191511 83 0 0.0 0.0 0.00 0.00 0.00 41 1013.0
20260905191008 83 0 0.0 0.0 0.00 0.00 0.00 41 1013.0
20260905190508 84 0 0.0 0.0 0.00 0.00 0.00 41 1013.0
20260905190011 84 0 0.0 0.0 0.00 0.00 0.00 41 1013.0
20260905185508 84 0 0.0 0.0 0.00 0.00 0.00 41 1012.0
20260905184009 85 288 0.0 2.0 0.00 0.00 0.00 41 1012.0
20260905183509 85 288 0.0 2.0 0.00 0.00 0.00 41 1012.0
20260905183011 85 288 0.0 2.0 0.00 0.00 0.00 41 1012.0
20260905182508 85 289 0.0 2.0 0.00 0.00 0.00 41 1012.0
20260905182008 85 290 0.0 2.0 0.00 0.00 0.00 42 1012.0
20260905181510 85 288 0.0 2.0 0.00 0.00 0.00 42 1012.0
20260905180509 85 284 0.0 2.0 0.00 0.00 0.00 42 1012.0
20260905175508 86 0 0.0 0.0 0.00 0.00 0.00 42 1012.0
20260905175008 86 284 0.0 2.0 0.00 0.00 0.00 42 1012.0
20260905174510 86 285 0.0 3.0 0.00 0.00 0.00 42 1012.0
20260905174008 86 276 0.0 3.0 0.00 0.00 0.00 42 1012.0
20260905173508 87 237 0.0 3.0 0.00 0.00 0.00 42 1012.0
20260905173011 87 228 0.0 3.0 0.00 0.00 0.00 43 1012.0
20260905172509 87 222 2.0 3.0 0.00 0.00 0.00 43 1012.0
20260905172009 86 216 0.0 3.0 0.00 0.00 0.00 44 1012.0
20260905171511 87 206 2.0 3.0 0.00 0.00 0.00 44 1012.0
20260905170508 88 201 0.0 3.0 0.00 0.00 0.00 38 1012.0
20260905165508 89 206 0.0 3.0 0.00 0.00 0.00 38 1011.0
20260905165008 89 208 2.0 3.0 0.00 0.00 0.00 38 1011.0
20260905164008 89 206 2.0 3.0 0.00 0.00 0.00 35 1012.0
20260905163508 90 215 2.0 3.0 0.00 0.00 0.00 34 1012.0
20260905163010 90 209 3.0 3.0 0.00 0.00 0.00 33 1012.0
20260905162508 90 176 0.0 4.0 0.00 0.00 0.00 32 1011.0
20260905162008 91 166 0.0 4.0 0.00 0.00 0.00 31 1011.0
20260905161510 91 168 0.0 4.0 0.00 0.00 0.00 31 1011.0
20260905161008 91 173 0.0 4.0 0.00 0.00 0.00 30 1011.0
20260905160508 91 195 2.0 4.0 0.00 0.00 0.00 30 1011.0
20260905160010 92 208 3.0 4.0 0.00 0.00 0.00 29 1011.0
20260905155508 92 202 2.0 4.0 0.00 0.00 0.00 29 1011.0
20260905155008 92 193 2.0 4.0 0.00 0.00 0.00 29 1011.0
20260905154510 92 190 2.0 4.0 0.00 0.00 0.00 29 1011.0
20260905154008 92 189 2.0 4.0 0.00 0.00 0.00 29 1011.0
20260905153011 92 162 2.0 5.0 0.00 0.00 0.00 28 1011.0
20260905152508 93 157 2.0 4.0 0.00 0.00 0.00 28 1011.0
20260905152008 92 162 3.0 4.0 0.00 0.00 0.00 28 1011.0
20260905151510 93 155 3.0 6.0 0.00 0.00 0.00 28 1011.0
20260905151008 92 162 4.0 6.0 0.00 0.00 0.00 28 1011.0
20260905150508 93 155 3.0 4.0 0.00 0.00 0.00 28 1011.0
20260905150011 94 146 2.0 4.0 0.00 0.00 0.00 27 1011.0
20260905145009 94 155 3.0 4.0 0.00 0.00 0.00 28 1011.0
20260905144511 94 179 0.0 4.0 0.00 0.00 0.00 28 1011.0
20260905144008 94 190 2.0 4.0 0.00 0.00 0.00 28 1011.0
20260905143508 95 189 3.0 4.0 0.00 0.00 0.00 28 1011.0
20260905143010 95 183 4.0 4.0 0.00 0.00 0.00 27 1011.0
20260905142508 95 182 3.0 5.0 0.00 0.00 0.00 28 1012.0
20260905142008 95 170 4.0 5.0 0.00 0.00 0.00 27 1012.0
20260905141511 95 161 3.0 5.0 0.00 0.00 0.00 27 1012.0
20260905141008 96 172 3.0 6.0 0.00 0.00 0.00 27 1012.0
20260905140508 96 169 0.0 6.0 0.00 0.00 0.00 27 1012.0
20260905135508 96 169 2.0 5.0 0.00 0.00 0.00 27 1012.0
20260905135008 96 159 0.0 6.0 0.00 0.00 0.00 27 1012.0
20260905134511 96 150 4.0 6.0 0.00 0.00 0.00 27 1012.0
20260905134009 96 164 3.0 5.0 0.00 0.00 0.00 27 1012.0
20260905133011 96 168 3.0 6.0 0.00 0.00 0.00 27 1012.0
20260905132508 96 157 3.0 6.0 0.00 0.00 0.00 27 1012.0
20260905132008 96 153 2.0 5.0 0.00 0.00 0.00 27 1012.0
20260905131510 97 170 2.0 5.0 0.00 0.00 0.00 27 1012.0
20260905131008 96 170 4.0 5.0 0.00 0.00 0.00 27 1012.0
20260905130508 96 161 4.0 6.0 0.00 0.00 0.00 27 1012.0
20260905130010 96 176 3.0 6.0 0.00 0.00 0.00 27 1012.0
20260905124008 97 162 3.0 6.0 0.00 0.00 0.00 27 1012.0
20260905123508 97 151 0.0 5.0 0.00 0.00 0.00 27 1012.0
20260905123010 97 160 4.0 4.0 0.00 0.00 0.00 27 1012.0
20260905122508 97 171 2.0 5.0 0.00 0.00 0.00 27 1012.0
20260905122008 97 170 3.0 5.0 0.00 0.00 0.00 27 1012.0
20260905121510 97 166 3.0 4.0 0.00 0.00 0.00 27 1012.0
20260905121008 97 156 2.0 6.0 0.00 0.00 0.00 27 1012.0
20260905120508 97 162 4.0 6.0 0.00 0.00 0.00 27 1012.0
20260905120010 96 166 3.0 6.0 0.00 0.00 0.00 27 1012.0
20260905115508 97 179 4.0 6.0 0.00 0.00 0.00 27 1012.0
20260905115007 96 192 0.0 6.0 0.00 0.00 0.00 27 1012.0
20260905114511 96 192 3.0 5.0 0.00 0.00 0.00 27 1012.0
20260905114008 96 201 2.0 5.0 0.00 0.00 0.00 27 1012.0
20260905113508 96 184 2.0 5.0 0.00 0.00 0.00 27 1012.0
20260905113010 96 157 0.0 5.0 0.00 0.00 0.00 27 1012.0
20260905112508 96 142 3.0 5.0 0.00 0.00 0.00 27 1012.0
20260905112008 96 153 3.0 5.0 0.00 0.00 0.00 27 1012.0
20260905111510 95 179 3.0 5.0 0.00 0.00 0.00 27 1012.0
20260905111008 95 175 3.0 6.0 0.00 0.00 0.00 28 1013.0
20260905110508 95 167 3.0 6.0 0.00 0.00 0.00 28 1013.0
20260905110011 94 168 4.0 6.0 0.00 0.00 0.00 28 1013.0
20260905105507 94 157 2.0 4.0 0.00 0.00 0.00 28 1013.0
20260905105008 94 152 0.0 4.0 0.00 0.00 0.00 28 1013.0
20260905103507 94 163 2.0 5.0 0.00 0.00 0.00 28 1013.0
20260905103011 94 144 2.0 5.0 0.00 0.00 0.00 28 1013.0
20260905102507 94 160 3.0 6.0 0.00 0.00 0.00 28 1013.0
20260905102008 94 178 3.0 6.0 0.00 0.00 0.00 28 1013.0
20260905101511 93 165 2.0 5.0 0.00 0.00 0.00 28 1013.0
20260905100011 93 192 3.0 5.0 0.00 0.00 0.00 28 1013.0
20260905095008 93 148 0.0 5.0 0.00 0.00 0.00 29 1013.0
20260905094511 93 144 3.0 5.0 0.00 0.00 0.00 29 1013.0
20260905094008 93 160 3.0 5.0 0.00 0.00 0.00 29 1013.0
20260905093010 92 170 2.0 4.0 0.00 0.00 0.00 30 1013.0
20260905092508 92 177 3.0 5.0 0.00 0.00 0.00 30 1013.0
20260905091510 92 188 0.0 4.0 0.00 0.00 0.00 30 1013.0
20260905091008 92 153 2.0 4.0 0.00 0.00 0.00 30 1013.0
20260905090508 92 168 2.0 4.0 0.00 0.00 0.00 30 1013.0
20260905090010 92 167 2.0 4.0 0.00 0.00 0.00 30 1013.0
20260905085008 91 161 3.0 5.0 0.00 0.00 0.00 30 1013.0
20260905084510 91 183 3.0 5.0 0.00 0.00 0.00 30 1013.0
20260905084008 91 192 0.0 4.0 0.00 0.00 0.00 30 1013.0
20260905083507 91 172 3.0 4.0 0.00 0.00 0.00 30 1013.0
20260905083010 91 167 0.0 4.0 0.00 0.00 0.00 30 1013.0
20260905082508 90 173 3.0 5.0 0.00 0.00 0.00 30 1013.0
20260905082007 90 165 3.0 5.0 0.00 0.00 0.00 30 1013.0
20260905081510 90 151 3.0 4.0 0.00 0.00 0.00 30 1013.0
20260905081008 90 149 0.0 4.0 0.00 0.00 0.00 30 1013.0
20260905080507 90 156 0.0 4.0 0.00 0.00 0.00 30 1013.0
20260905080011 89 175 2.0 4.0 0.00 0.00 0.00 31 1013.0
20260905075507 89 169 0.0 3.0 0.00 0.00 0.00 31 1013.0
20260905074510 89 141 0.0 3.0 0.00 0.00 0.00 31 1013.0
20260905074008 88 144 0.0 3.0 0.00 0.00 0.00 32 1013.0
20260905073507 88 120 0.0 2.0 0.00 0.00 0.00 32 1013.0
20260905073010 88 117 0.0 2.0 0.00 0.00 0.00 32 1013.0
20260905072508 87 117 0.0 2.0 0.00 0.00 0.00 33 1013.0
20260905072007 87 103 0.0 2.0 0.00 0.00 0.00 33 1013.0
20260905071510 87 101 0.0 2.0 0.00 0.00 0.00 33 1013.0
20260905071008 86 0 0.0 0.0 0.00 0.00 0.00 33 1013.0
20260905070507 86 0 0.0 0.0 0.00 0.00 0.00 34 1013.0
20260905070010 85 0 0.0 0.0 0.00 0.00 0.00 34 1013.0
20260905065508 85 0 0.0 0.0 0.00 0.00 0.00 34 1013.0
20260905065008 84 0 0.0 0.0 0.00 0.00 0.00 35 1013.0
20260905064510 84 0 0.0 0.0 0.00 0.00 0.00 34 1013.0
20260905064008 83 0 0.0 0.0 0.00 0.00 0.00 35 1013.0
20260905063010 82 0 0.0 0.0 0.00 0.00 0.00 36 1013.0
20260905062507 82 0 0.0 0.0 0.00 0.00 0.00 37 1013.0
20260905062007 81 0 0.0 0.0 0.00 0.00 0.00 37 1013.0
20260905061510 81 0 0.0 0.0 0.00 0.00 0.00 37 1013.0
20260905060507 80 0 0.0 0.0 0.00 0.00 0.00 38 1013.0
20260905060011 79 0 0.0 0.0 0.00 0.00 0.00 38 1013.0
20260905055507 78 0 0.0 0.0 0.00 0.00 0.00 38 1013.0
20260905055008 78 0 0.0 0.0 0.00 0.00 0.00 39 1013.0
20260905054510 77 0 0.0 0.0 0.00 0.00 0.00 39 1013.0
20260905054007 77 45 0.0 2.0 0.00 0.00 0.00 39 1013.0
20260905053010 76 45 0.0 3.0 0.00 0.00 0.00 39 1013.0
20260905052507 75 45 0.0 3.0 0.00 0.00 0.00 39 1013.0
20260905052008 75 45 0.0 3.0 0.00 0.00 0.00 39 1013.0
20260905051510 75 45 0.0 3.0 0.00 0.00 0.00 39 1013.0
20260905050010 74 45 0.0 3.0 0.00 0.00 0.00 39 1013.0
20260905045507 74 45 0.0 3.0 0.00 0.00 0.00 39 1013.0
20260905045007 74 45 0.0 3.0 0.00 0.00 0.00 39 1013.0